Wind_Speed
18 18 18 18 18 17 17 17 17 17 17 17 16 16 16 16 15 16 16 16 16 16 15 15 15 15 15 14 14 14 14 14 14 13 13 13 13 13 13 13 12 13 14
19 19 19 20 20 19 18 18 18 17 17 17 17 16 15 15 16 16 17 17 17 16 16 15 15 15 15 15 15 15 15 15 14 14 14 13 13 13 14 14 14 14 14
20 21 21 21 20 20 19 18 18 17 17 17 17 16 16 16 16 17 18 18 18 18 17 17 16 16 16 16 16 16 16 16 15 15 15 14 14 14 14 14 14 14 15
21 22 21 21 20 20 20 20 19 18 17 17 17 17 17 17 16 17 18 19 19 19 19 18 18 18 17 17 17 17 17 16 16 16 16 16 16 15 15 15 15 15 15
22 22 22 22 21 21 21 22 21 20 19 19 19 19 18 18 17 17 18 19 19 20 20 20 20 20 19 19 18 18 17 17 17 18 18 17 17 16 16 16 15 15 15
23 23 23 23 23 22 22 22 23 22 21 21 21 21 20 20 19 18 19 19 20 20 21 22 22 21 21 20 20 19 18 18 18 18 18 18 17 17 17 16 16 16 16
24 24 24 24 24 24 23 23 23 23 23 23 22 22 21 21 20 19 19 20 21 21 22 23 23 23 23 22 22 21 20 20 20 19 18 18 18 17 17 17 17 17 17
25 24 25 25 25 24 25 24 23 23 23 22 22 22 22 21 20 20 20 20 21 22 23 23 24 23 23 24 24 23 22 21 21 20 19 19 19 18 18 18 17 17 17
26 25 25 25 25 25 25 25 24 24 23 23 23 23 23 22 22 21 21 21 21 22 23 24 25 25 24 24 24 24 23 23 23 22 21 20 20 20 19 19 19 19 19
27 26 26 26 25 25 25 24 24 23 24 24 24 24 24 24 24 23 23 22 22 23 23 24 25 25 25 25 25 25 24 24 24 24 23 22 22 21 21 21 20 20 20
27 27 26 26 25 25 25 25 25 26 26 26 26 25 25 26 26 25 25 24 24 24 24 24 25 26 26 26 26 26 26 26 25 25 25 24 23 23 22 22 22 21 21
27 26 26 26 26 26 26 26 27 27 28 27 27 27 27 28 28 27 27 26 26 26 25 25 25 26 27 27 27 27 27 27 27 26 25 25 25 24 24 24 23 23 23
28 27 27 27 26 26 26 26 27 28 28 28 28 28 28 29 28 28 28 28 28 27 27 26 27 26 26 27 28 28 28 28 28 27 26 26 26 26 26 26 25 25 24
28 28 27 27 27 26 26 27 27 27 28 29 29 29 28 28 28 29 29 29 29 29 29 28 28 28 28 27 27 28 28 28 28 29 29 28 28 28 28 27 27 27 26
29 29 28 28 27 28 28 28 28 28 28 28 29 29 29 29 29 29 30 30 30 29 29 29 29 29 29 29 29 28 29 29 28 28 29 29 30 29 29 29 28 28 27
30 29 28 28 28 28 28 28 29 29 29 30 30 30 30 30 30 30 30 30 30 30 30 30 29 29 30 30 30 30 30 30 30 30 30 30 30 30 29 29 29 28 28
28 28 28 28 28 29 29 29 29 30 31 31 32 32 32 32 31 30 30 30 31 31 31 30 30 30 30 31 31 31 31 30 30 30 30 30 30 30 30 29 29 28 28
28 29 29 29 29 29 29 30 30 31 32 32 33 33 32 32 32 31 30 30 31 31 30 30 30 30 30 30 30 30 30 31 31 31 30 30 30 31 30 29 29 28 28
29 29 30 30 30 30 30 30 30 31 32 32 33 33 33 33 32 32 31 31 31 31 31 31 30 30 29 29 29 30 30 31 31 31 31 31 31 30 30 29 30 30 30
30 30 30 30 30 30 31 31 31 31 32 32 32 32 32 32 32 32 32 32 32 32 31 31 30 30 30 29 30 30 30 31 31 31 31 31 31 31 30 30 30 30 31
29 29 30 30 30 30 30 30 30 31 32 32 32 32 32 32 32 32 32 31 31 31 32 32 32 32 32 32 31 31 31 31 32 32 32 30 30 30 31 31 31 31 31
29 30 30 29 29 30 30 30 30 30 31 31 31 31 32 32 33 32 32 32 32 32 32 33 33 33 33 33 32 32 32 32 32 32 32 31 30 29 29 30 31 31 30
28 29 29 30 30 30 30 30 30 30 30 30 30 30 31 32 32 32 32 32 32 32 33 33 34 33 33 33 33 33 33 33 33 33 33 32 31 31 31 31 31 31 31
28 28 28 28 29 30 30 30 31 31 31 31 31 31 32 32 31 32 32 32 32 32 32 33 34 33 32 32 32 33 33 32 32 32 32 33 33 32 32 31 30 30 30
26 27 28 28 28 29 29 29 30 31 31 32 32 31 31 30 30 30 31 31 32 32 32 33 33 32 32 31 31 31 31 31 31 31 31 32 32 31 31 30 30 30 30
25 25 26 27 28 28 28 28 29 29 29 29 30 30 29 29 29 29 30 30 31 31 31 31 31 31 31 31 30 30 30 30 30 30 30 30 30 30 30 30 29 29 29
Wind_Direction
263 264 265 265 265 266 265 269 269 266 267 268 265 264 262 260 257 256 254 251 250 250 251 253 255 257 258 260 261 264 267 266 267 271 275 278 281 281 279 276 276 275 274
263 263 264 265 263 264 266 268 269 267 263 265 263 262 261 259 256 254 252 251 251 252 253 255 256 256 257 260 262 264 266 266 266 268 272 276 278 280 282 279 278 278 277
266 266 264 265 265 265 265 266 266 263 261 261 259 259 260 258 256 253 251 250 251 252 252 254 255 255 256 259 261 263 266 266 266 267 269 272 275 278 281 280 281 281 279
268 267 265 265 265 266 265 264 263 259 258 257 256 257 258 258 256 253 252 251 250 251 252 254 255 254 254 258 261 263 266 265 265 266 268 271 273 276 278 280 280 281 280
269 266 265 265 265 265 263 260 259 257 257 258 257 256 256 256 257 254 252 251 251 250 251 253 254 254 255 257 260 262 263 263 264 265 267 271 271 274 278 282 282 281 282
270 267 266 266 264 264 261 261 258 257 257 258 256 255 255 256 257 256 254 252 252 252 252 253 254 255 256 259 258 259 260 262 264 265 267 269 270 273 277 280 282 282 282
268 267 266 267 265 262 261 261 259 257 256 256 253 253 254 253 256 256 256 255 253 253 253 254 255 256 256 257 257 258 259 261 263 265 268 270 271 272 275 277 280 283 284
267 268 267 266 264 262 261 259 258 257 254 253 252 251 251 252 254 255 255 257 256 255 253 253 254 255 256 256 256 258 259 261 263 265 267 269 271 272 273 276 279 282 282
264 265 266 266 264 263 261 259 259 258 255 252 250 249 250 251 254 255 257 256 255 256 255 254 255 257 259 257 256 257 259 261 262 262 264 266 268 269 271 274 278 280 282
262 263 264 266 266 263 261 261 258 257 255 253 252 250 250 251 254 256 257 257 256 256 256 256 257 258 258 257 257 258 259 260 262 262 263 264 266 268 270 273 276 279 280
263 263 263 264 265 265 264 262 259 258 258 257 254 251 251 252 254 256 257 257 257 256 257 257 257 257 257 257 257 257 258 259 261 263 263 264 264 265 268 271 274 275 278
263 263 263 263 264 265 264 262 261 261 260 257 255 254 254 254 255 256 257 256 256 257 258 259 259 259 257 256 257 257 258 259 261 262 264 265 265 267 268 270 272 274 277
263 263 263 263 263 264 263 262 261 260 259 257 257 257 256 255 255 257 256 257 256 256 258 260 261 260 259 257 256 258 259 260 261 261 262 264 266 268 270 270 270 272 275
264 263 263 262 262 263 265 263 260 259 258 258 257 257 256 255 255 257 258 259 258 257 258 261 262 261 259 258 257 257 258 260 262 261 261 262 266 268 270 270 270 271 273
265 265 264 265 265 265 265 262 259 258 257 257 257 258 258 258 259 259 260 259 259 260 260 261 263 262 260 259 258 258 259 260 261 262 262 263 265 267 269 269 269 269 271
264 263 262 263 263 264 263 260 259 258 258 258 258 258 258 258 259 260 260 259 258 260 261 262 263 262 261 260 259 259 260 260 261 262 263 265 266 267 267 267 267 268 271
264 261 261 261 263 264 262 259 259 259 258 258 259 259 257 257 258 258 258 258 258 259 260 261 262 262 261 260 259 259 259 261 262 264 265 266 266 267 266 266 268 269 271
263 261 262 263 263 262 261 260 260 260 260 259 259 259 257 257 257 258 258 257 258 259 260 261 261 260 259 258 259 258 259 260 262 264 266 268 269 268 267 267 269 270 271
262 262 261 263 263 262 262 261 261 261 261 260 259 257 257 257 256 256 257 257 257 258 260 260 260 260 259 259 260 260 259 259 260 263 265 266 268 268 267 267 269 269 269
261 262 263 264 264 264 263 262 261 261 261 260 258 258 257 256 255 256 257 257 257 257 257 258 258 259 259 261 262 262 262 261 260 262 265 267 267 266 265 266 268 269 269
263 264 265 265 266 265 263 262 262 262 261 259 258 257 257 256 255 255 256 257 257 257 257 257 258 259 259 260 261 262 263 263 262 262 264 266 266 266 266 267 269 269 268
266 266 267 266 265 265 264 262 262 262 260 259 258 257 257 256 256 256 257 258 257 256 257 258 259 259 259 260 261 261 261 262 263 264 264 265 265 266 268 268 269 269 269
268 268 267 265 265 265 263 262 262 261 260 259 257 257 257 258 258 257 258 257 257 257 258 258 259 258 258 260 260 261 262 263 264 264 265 265 266 267 268 269 269 268 268
269 268 267 267 267 266 265 264 262 260 259 259 259 258 257 258 257 256 256 256 256 257 257 257 258 258 258 259 259 260 261 263 264 265 264 264 265 266 267 268 268 268 268
272 271 269 268 267 266 265 263 262 260 259 258 258 258 256 255 255 257 258 256 256 255 255 257 258 257 257 259 259 261 262 263 264 265 264 264 265 265 267 267 267 268 268
273 273 271 269 268 267 266 264 262 261 260 260 259 258 257 256 256 258 258 257 256 255 255 256 256 256 257 259 260 262 262 263 264 265 265 264 263 263 265 266 266 267 267
Height
5826 5826 5826 5826 5826 5826 5826 5826 5826 5825 5826 5826 5826 5827 5827 5827 5828 5828 5829 5830 5831 5832 5833 5834 5834 5835 5836 5837 5837 5838 5838 5838 5839 5839 5838 5838 5837 5836 5836 5835 5834 5834 5833
5821 5821 5821 5821 5821 5821 5821 5821 5821 5820 5820 5821 5822 5822 5822 5823 5824 5825 5825 5826 5827 5828 5829 5830 5831 5831 5832 5833 5833 5834 5834 5835 5835 5835 5835 5834 5834 5833 5833 5832 5831 5830 5830
5816 5815 5815 5815 5815 5815 5815 5815 5815 5815 5815 5816 5817 5817 5818 5818 5819 5820 5821 5822 5823 5824 5825 5826 5826 5827 5828 5828 5829 5830 5830 5830 5831 5831 5831 5831 5830 5829 5829 5828 5827 5827 5826
5809 5809 5809 5809 5809 5809 5809 5810 5810 5810 5811 5811 5812 5812 5813 5813 5814 5815 5816 5817 5818 5819 5820 5821 5822 5823 5824 5824 5825 5825 5826 5826 5826 5826 5827 5827 5826 5826 5825 5824 5824 5823 5822
5803 5803 5803 5803 5803 5803 5803 5804 5804 5804 5805 5806 5806 5807 5808 5808 5809 5810 5810 5811 5812 5813 5815 5816 5817 5818 5819 5820 5820 5821 5821 5821 5822 5822 5822 5822 5822 5822 5821 5820 5819 5819 5818
5796 5796 5796 5796 5796 5796 5797 5797 5798 5798 5798 5799 5800 5801 5802 5803 5804 5804 5805 5806 5807 5808 5809 5810 5811 5812 5813 5814 5815 5816 5816 5817 5817 5817 5817 5817 5817 5817 5817 5816 5815 5815 5814
5789 5789 5789 5789 5789 5789 5790 5790 5791 5791 5792 5793 5794 5795 5795 5796 5797 5798 5799 5800 5801 5802 5803 5804 5805 5807 5808 5809 5810 5810 5811 5812 5812 5812 5812 5812 5813 5812 5812 5811 5811 5810 5809
5782 5781 5782 5781 5781 5782 5782 5783 5784 5784 5785 5786 5787 5788 5789 5790 5791 5792 5793 5794 5795 5796 5797 5798 5799 5800 5801 5803 5804 5805 5806 5806 5807 5807 5808 5808 5807 5807 5807 5807 5806 5805 5805
5773 5774 5774 5773 5774 5774 5775 5776 5776 5777 5778 5779 5780 5781 5782 5784 5785 5786 5787 5787 5788 5789 5790 5791 5793 5794 5795 5796 5797 5798 5799 5800 5801 5801 5802 5802 5802 5802 5801 5801 5800 5800 5799
5765 5765 5766 5766 5766 5766 5767 5768 5769 5769 5770 5771 5773 5774 5775 5777 5778 5779 5780 5781 5782 5783 5784 5785 5786 5787 5788 5789 5790 5792 5793 5794 5794 5795 5795 5796 5796 5796 5795 5795 5795 5794 5794
5756 5757 5757 5758 5758 5758 5759 5760 5761 5761 5762 5763 5765 5766 5767 5769 5770 5771 5772 5774 5775 5776 5776 5777 5779 5780 5781 5782 5783 5784 5786 5786 5787 5788 5788 5789 5789 5789 5789 5789 5789 5788 5788
5748 5749 5749 5750 5750 5750 5751 5752 5752 5753 5754 5755 5756 5757 5759 5761 5762 5763 5765 5766 5767 5768 5769 5770 5771 5772 5773 5774 5775 5777 5778 5779 5779 5780 5781 5782 5782 5782 5782 5782 5782 5782 5781
5740 5740 5741 5741 5742 5742 5743 5743 5744 5745 5746 5747 5748 5749 5751 5752 5754 5755 5756 5757 5759 5760 5761 5762 5763 5764 5765 5766 5767 5768 5769 5771 5772 5772 5773 5774 5775 5775 5775 5775 5775 5775 5774
5731 5732 5732 5733 5733 5733 5734 5735 5736 5737 5738 5739 5740 5741 5742 5744 5745 5746 5748 5749 5750 5751 5753 5754 5755 5756 5757 5758 5758 5760 5761 5763 5763 5764 5765 5766 5766 5767 5767 5767 5767 5767 5766
5723 5723 5724 5723 5723 5724 5725 5726 5727 5728 5729 5730 5731 5732 5734 5735 5737 5738 5739 5741 5742 5743 5744 5745 5746 5747 5748 5749 5750 5751 5753 5754 5755 5755 5756 5757 5757 5758 5758 5758 5758 5758 5758
5714 5714 5714 5715 5715 5716 5716 5717 5718 5719 5721 5722 5723 5724 5725 5727 5728 5729 5730 5732 5733 5734 5735 5736 5737 5738 5739 5740 5741 5743 5744 5745 5746 5747 5747 5748 5748 5748 5749 5749 5749 5749 5749
5704 5704 5705 5705 5706 5706 5707 5708 5709 5710 5711 5712 5713 5714 5716 5717 5719 5720 5721 5723 5724 5725 5726 5727 5728 5729 5730 5731 5732 5733 5735 5736 5737 5738 5738 5738 5739 5739 5740 5740 5740 5740 5740
5695 5696 5696 5696 5697 5697 5698 5698 5699 5700 5701 5702 5703 5705 5706 5708 5710 5711 5712 5714 5715 5716 5717 5718 5719 5720 5720 5721 5723 5724 5725 5726 5727 5728 5729 5729 5730 5730 5730 5731 5731 5731 5731
5686 5686 5687 5687 5687 5688 5688 5689 5690 5690 5691 5692 5693 5694 5696 5698 5700 5701 5703 5705 5706 5707 5708 5709 5710 5711 5712 5713 5714 5715 5716 5717 5718 5719 5720 5720 5720 5721 5721 5722 5722 5722 5722
5676 5677 5677 5677 5678 5678 5679 5679 5680 5680 5681 5682 5683 5684 5686 5688 5690 5691 5693 5695 5697 5698 5699 5700 5701 5702 5703 5704 5705 5706 5706 5707 5708 5709 5710 5710 5711 5711 5711 5712 5712 5712 5712
5667 5667 5667 5668 5668 5668 5669 5669 5670 5670 5671 5672 5673 5675 5676 5678 5679 5681 5683 5685 5686 5688 5689 5690 5692 5692 5693 5694 5695 5696 5697 5698 5698 5699 5700 5700 5700 5701 5702 5702 5702 5702 5702
5657 5657 5657 5657 5658 5658 5659 5659 5660 5660 5661 5662 5663 5665 5666 5668 5669 5671 5673 5675 5676 5677 5679 5680 5681 5682 5683 5684 5685 5686 5687 5688 5688 5689 5690 5690 5691 5691 5692 5692 5692 5692 5692
5647 5647 5647 5647 5648 5648 5649 5649 5650 5651 5651 5652 5653 5655 5656 5658 5659 5661 5662 5664 5666 5667 5668 5669 5670 5671 5672 5673 5674 5676 5677 5677 5678 5679 5680 5680 5681 5682 5682 5682 5682 5682 5683
5638 5637 5637 5637 5638 5638 5638 5639 5640 5641 5642 5643 5644 5645 5646 5648 5649 5651 5652 5653 5655 5656 5657 5658 5660 5661 5662 5663 5664 5665 5666 5666 5667 5668 5669 5670 5670 5671 5671 5672 5672 5672 5673
5628 5628 5628 5628 5628 5628 5629 5629 5629 5630 5631 5632 5634 5635 5636 5638 5639 5640 5641 5642 5644 5645 5646 5648 5649 5650 5651 5652 5653 5654 5655 5656 5657 5657 5658 5659 5660 5660 5661 5661 5662 5662 5663
5620 5619 5619 5619 5619 5619 5619 5619 5620 5620 5621 5622 5623 5624 5626 5628 5629 5630 5631 5632 5633 5635 5636 5637 5638 5640 5641 5642 5643 5644 5645 5646 5647 5647 5648 5648 5649 5650 5651 5651 5652 5652 5653